Preview of NWS' New Version of Forecast
This preview is not operational and should not be used for support decisions.

Regional Weather Roundup (RWR)

Issued by National Weather Service (NWS)

                            
000
ASUS43 KMKX 211100
RWRWI 

WISCONSIN REGIONAL WEATHER ROUNDUP
NATIONAL WEATHER SERVICE MILWAUKEE/SULLIVAN WI
500 AM CST THU FEB 21 2019

NOTE: "FAIR" INDICATES FEW OR NO CLOUDS BELOW 12,000 FEET WITH NO
SIGNIFICANT WEATHER AND/OR OBSTRUCTIONS TO VISIBILITY.

WIZ001-002-006>008-014>016-023>028-211200-
NORTHWEST WISCONSIN
  
CITY           SKY/WX    TMP DP  RH WIND       PRES   REMARKS
SUPERIOR ARPT  CLOUDY    21  18  86 SW7       29.83R WCI  13          
ASHLAND        CLOUDY    22  19  89 SW9       29.81R WCI  12          
HAYWARD        LGT SNOW  22  19  89 VRB7      29.82R FOG     WCI  13  
SIREN          LGT SNOW  19  16  89 SW8       29.86R WCI   9          
CUMBERLAND     LGT SNOW  14  10  85 SW10      29.85R WCI   1          
RICE LAKE      CLOUDY    15   3  59 SW9       29.87R HAZE    WCI   3  
CHETEK         LGT SNOW  13  10  87 W5        29.88R WCI   5          
LADYSMITH      CLOUDY    20  16  84 SW9       29.85R WCI   9          
EAU CLAIRE     MOCLDY    10   7  85 SW10      29.90R WCI  -3          
MENOMONIE      MOCLDY     8   3  82 SW6       29.91R WCI  -2          
NEW RICHMOND   LGT SNOW  11   7  85 SW8       29.90R WCI  -1          
OSCEOLA        LGT SNOW  13  11  92 SW5       29.93R WCI   5          
$$
 
WIZ003>005-009-010-017-018-211200-
NORTH CENTRAL WISCONSIN
  
CITY           SKY/WX    TMP DP  RH WIND       PRES   REMARKS
MANITOWISH WTR NOT AVBL                                               
ARBOR VITAE    LGT SNOW  24  22  89 W10       29.75R WCI  14          
WOODRUFF       LGT SNOW  24  22  89 W10       29.75R WCI  14          
RHINELANDER    NOT AVBL                                               
EAGLE RIVER    LGT SNOW  24  20  87 W9        29.73R WCI  14          
LAND O LAKES   FLURRIES  24  20  87 W7        29.74R WCI  16          
PHILLIPS       FLURRIES  20  18  93 SW8       29.77R WCI  10          
TOMAHAWK       CLOUDY    20  16  84 SW6       29.80R WCI  12          
MEDFORD        LGT SNOW  16  12  84 SW9       29.82R WCI   5          
MERRILL        FLURRIES  21  16  81 W13       29.82R WCI   8          
$$
 
WIZ029-030-035-036-043>047-211200-
CENTRAL WISCONSIN
  
CITY           SKY/WX    TMP DP  RH WIND       PRES   REMARKS
WAUSAU         NOT AVBL                                               
MOSINEE        LGT SNOW  19  16  86 SW16      29.86R WCI   5          
MARSHFIELD     NOT AVBL                                               
STEVENS POINT  MIX PCPN  16  11  82 SW12G17   29.87R WCI   2          
WAUPACA        FAIR      20  13  74 SW8       29.90R WCI  10          
WAUTOMA        NOT AVBL                                               
WISC RAPIDS    NOT AVBL                                               
CAMP DOUGLAS   NOT AVBL                                               
$$
 
WIZ011>013-019>022-031-037>040-048>050-211200-
NORTHEAST WISCONSIN
  
CITY           SKY/WX    TMP DP  RH WIND       PRES   REMARKS
ANTIGO         CLOUDY    19  15  84 W15       29.81R WCI   5          
SHAWANO        CLOUDY    25  17  70 SW10      29.86R WCI  15          
OCONTO         CLOUDY    23  15  71 W13G18    29.85R WCI  12          
STURGEON BAY   NOT AVBL                                               
GREEN BAY      FAIR      24  14  65 W16G26    29.89R WCI  11          
MANITOWOC      FAIR      22  16  78 W14       29.91R WCI   9          
APPLETON       FAIR      21  10  63 SW14      29.87R WCI   8          
CLINTONVILLE   CLOUDY    21  13  72 W14G22    29.87R WCI   8          
OSHKOSH        FAIR      20  13  74 VRB6      29.91R WCI  12          
$$
 
WIZ032>034-041-042-053>061-211200-
SOUTHWEST WISCONSIN
  
CITY           SKY/WX    TMP DP  RH WIND       PRES   REMARKS
LA CROSSE      FAIR      14   8  77 SW13      29.98R WCI   0          
SPARTA         FAIR      14  10  85 W3        29.95R                  
VIROQUA        FAIR      13  11  92 W10       29.93R WCI   0          
BOSCOBEL       FAIR      17  10  74 SW6       30.02R WCI   9          
PRAIRIE DU CHI FAIR      15   8  75 W6        30.04R WCI   6          
PLATTEVILLE    FAIR      18  15  90 W12       29.99R WCI   5          
$$

WIZ056-057-062-063-064-067-068-211200-
SOUTH CENTRAL WISCONSIN
  
CITY           SKY/WX    TMP DP  RH WIND       PRES   REMARKS
REEDSBURG      FAIR      16  10  77 SW8       29.96R WCI   6          
BARABOO/DELLS  FAIR      17  11  79 W13       29.95R WCI   3          
LONE ROCK      NOT AVBL                                               
MINERAL POINT  FAIR      19  18  93 W10       29.96R WCI   8          
MADISON        FAIR      18  12  77 SW8       29.96R WCI   8          
MIDDLETON      FAIR      20  15  78 W9        29.96R WCI  10          
WATERTOWN      FAIR      19  14  79 SW12      29.96R WCI   7          
MONROE         FAIR      20  15  81 MISG      29.97R                  
JANESVILLE     FAIR      23  18  80 SW8       30.00R WCI  14          
$$
 
WIZ051-052-058>065-066-070>072-211200-
SOUTHEAST WISCONSIN
  
CITY           SKY/WX    TMP DP  RH WIND       PRES   REMARKS
MILWAUKEE      FAIR      25  14  63 W12       29.98R WCI  14          
WAUKESHA       FAIR      21  14  73 SW12G21   29.97R WCI   9          
MILWAUKEE/TIMM FAIR      23  12  63 W15G22    29.98R WCI  10          
RACINE         FAIR      24  15  68 W10G20    30.00R WCI  14          
KENOSHA        FAIR      25  17  72 W15       29.99R WCI  13          
FOND DU LAC    FAIR      19  12  74 SW7       29.93R WCI  10          
SHEBOYGAN      FAIR      20  13  74 SW10      29.91R WCI   9          
WEST BEND      FAIR      21  16  79 W9        29.92R WCI  11          
JUNEAU         FAIR      19  13  78 SW12      29.94R WCI   6          
$$

LSZ147-162-211200-
LAKE SUPERIOR
  
STATION/POSITION TIME  TEMP    WIND        PRES    WAVE
                       AIR SEA DIR/SP/G            HT/PER
                 (UTC) (F)     (DEG/KT/KT) (MB)    (FT/S)
DEVILS ISLAND    1000   24     330/ 11/ 12 1008.7R
SAXON HARBOR     1040   23     230/  5/  9 1008.8R
$$
 
LMZ867-665-643>646-211200-
LAKE MICHIGAN
  
STATION/POSITION TIME  TEMP    WIND        PRES    WAVE
                       AIR SEA DIR/SP/G            HT/PER
                 (UTC) (F)     (DEG/KT/KT) (MB)    (FT/S)
CHAMBERS ISLAND  0940   28     210/ 10/ 19 1007.5R
NORTHPORT PIER   1040   28     220/  3/  9 1009.1R
KEWAUNEE LAKESHO 1024   27     250/  7/ 14 1010.2
SHEBOYGAN LAKESH 1000   26     230/ 15/ 17 1013.0R
PORT WASHINGTON  1030   24     260/ 10/ 15 1014.9R
MILWAUKEE LAKESH 1030   25     240/ 12/ 20   N/A
KENOSHA   LAKESH 1000   27     260/ 10/ 17 1015.2
$$

TC  - TEMPERATURE IN CELSIUS
VSB - VISIBILITY IN STATUTE MILES
WCI - WIND CHILL INDEX
HX  - HEAT INDEX